Wind_Speed
9 10 10 10 10 10 11 11 11 10 10 10 9 8 8 8 8 8 8 8 9 9 9 9 9 9 9 9 10 10 10 11 10 11 11 12 12 12 12 12 13 12 12
9 10 10 11 10 10 10 10 11 10 10 10 9 9 9 9 9 8 9 9 9 9 9 9 9 10 10 10 10 10 11 11 11 11 11 11 11 11 11 11 12 11 11
9 10 10 10 11 11 10 11 11 11 10 10 10 10 9 9 9 9 9 9 9 9 10 10 10 11 11 11 11 11 11 11 10 10 10 11 11 11 11 11 12 11 12
10 10 10 11 11 11 11 12 11 11 11 10 10 10 10 9 10 10 10 10 10 10 11 11 11 11 12 11 11 11 11 11 10 10 10 11 11 12 12 12 13 12 12
11 11 11 11 11 12 12 12 11 12 12 11 11 10 10 10 10 10 10 11 11 11 11 12 12 12 12 11 11 11 11 11 11 11 11 11 12 12 12 13 13 13 14
12 12 12 12 12 12 12 12 12 13 12 12 11 11 11 10 10 11 11 11 11 12 12 12 12 12 12 11 11 11 11 11 11 11 12 12 12 12 12 12 12 12 12
13 13 12 12 11 11 12 12 12 12 12 12 12 12 11 11 11 11 11 11 11 11 11 11 12 12 12 12 11 11 12 12 12 12 12 12 12 12 12 13 13 13 13
14 14 13 12 12 12 12 12 12 13 13 13 13 13 13 12 12 12 12 12 12 11 11 11 11 11 11 12 12 12 12 13 13 13 12 12 13 13 13 14 14 14 14
14 13 13 13 13 13 12 12 13 13 13 13 13 13 13 13 13 13 13 13 13 12 12 12 12 12 11 11 12 12 13 14 14 14 13 13 13 13 13 14 14 14 14
15 15 15 15 15 14 14 13 13 13 13 13 13 13 13 13 13 13 13 13 13 13 12 13 13 13 13 12 12 13 13 13 13 13 13 13 13 13 13 13 13 13 14
15 15 15 15 15 15 15 14 14 14 13 13 14 14 14 14 14 14 14 13 14 14 13 13 13 13 12 12 12 13 13 13 13 13 14 14 14 13 13 14 14 14 14
15 15 15 15 15 16 15 14 15 14 14 14 14 14 14 14 14 14 14 14 14 14 14 14 14 13 13 13 13 14 14 15 14 14 14 14 14 14 14 14 14 14 14
15 15 15 15 15 15 15 15 16 16 15 15 15 14 14 14 14 14 14 15 14 14 14 14 14 14 14 14 14 14 15 15 15 15 15 15 15 16 16 15 15 15 15
16 15 15 15 16 16 16 16 16 16 16 15 15 15 15 15 15 15 15 15 15 15 15 15 15 15 15 15 15 15 16 16 16 17 16 16 16 17 16 16 16 16 16
16 16 16 15 16 16 16 16 17 16 16 15 15 16 16 16 16 16 16 16 16 15 15 15 16 16 16 17 17 17 18 17 17 16 17 17 17 18 18 17 17 17 17
17 18 18 18 17 16 16 16 16 16 16 15 15 16 16 16 16 16 16 17 17 17 17 16 16 16 16 16 17 18 18 17 16 16 17 17 17 17 18 17 17 17 17
17 18 19 19 19 18 17 17 17 17 17 17 17 17 17 17 17 17 17 17 17 17 17 17 17 17 17 18 18 18 17 18 17 17 17 17 17 17 17 17 17 17 17
18 19 19 20 20 20 20 19 19 19 19 19 19 18 18 17 18 18 18 19 19 19 19 19 19 19 19 18 19 19 19 19 18 17 18 17 17 17 17 17 18 18 19
19 20 20 20 21 21 22 22 22 20 20 20 20 20 20 20 19 19 20 20 20 20 20 21 21 21 20 20 20 20 20 20 19 18 18 18 18 18 18 18 18 19 19
21 21 22 22 22 22 23 23 23 23 23 22 22 22 22 22 22 21 21 21 21 21 22 22 22 22 21 21 21 20 20 19 19 19 18 19 19 19 19 19 20 20 20
23 23 23 23 23 23 23 23 24 24 24 24 24 24 24 24 25 24 23 23 23 22 23 23 23 22 22 22 21 21 21 21 20 20 20 21 21 20 21 21 21 22 22
23 23 23 24 24 25 25 24 25 25 25 26 26 25 26 26 27 27 26 26 26 25 25 25 25 24 24 23 23 23 23 23 22 22 22 22 22 22 23 23 23 23 23
23 23 24 24 24 25 25 25 26 26 26 27 27 27 27 27 27 27 28 28 28 27 27 27 26 26 26 26 25 25 25 25 25 24 25 24 24 24 24 24 24 24 24
22 23 24 24 24 24 25 26 26 26 27 27 27 28 28 28 28 28 29 29 29 29 28 28 28 28 28 28 27 27 26 26 25 25 26 25 26 26 25 25 24 24 25
23 23 24 23 24 24 25 26 26 27 27 27 28 28 27 27 28 28 29 30 29 29 29 29 30 30 30 29 29 28 28 27 26 26 26 26 26 27 27 26 26 26 26
25 24 24 25 25 25 25 26 27 27 28 28 28 28 29 29 29 28 29 30 30 30 30 30 31 31 31 30 30 30 29 29 29 28 28 28 28 28 28 28 28 28 28
Wind_Direction
278 278 273 269 264 262 261 257 257 259 262 265 265 266 268 270 269 268 268 268 266 266 267 267 264 267 271 272 270 269 270 269 265 262 261 262 261 260 262 261 257 257 252
279 279 274 269 264 260 257 256 259 260 262 263 265 267 268 266 267 270 268 270 272 272 272 269 269 268 270 272 272 271 271 271 269 268 267 264 262 261 264 263 256 253 248
283 280 275 270 263 258 255 258 259 259 261 262 264 268 268 267 267 267 269 272 274 275 274 274 275 272 270 269 271 274 273 271 272 271 267 266 264 263 262 260 255 250 246
282 278 274 271 265 259 256 255 257 260 263 265 266 267 269 270 270 268 270 272 273 276 275 273 274 277 274 271 272 273 271 271 272 272 270 267 266 264 262 259 258 253 242
278 278 276 272 266 260 258 256 257 261 262 265 266 267 269 273 273 271 271 273 275 276 276 274 273 274 273 272 271 273 272 271 275 278 276 272 267 266 263 261 259 255 247
274 274 277 274 267 263 261 258 258 259 260 262 265 267 268 269 272 272 273 274 276 275 275 275 274 272 273 274 275 276 276 275 277 279 278 274 268 266 264 261 259 258 254
271 270 270 270 266 265 262 260 259 257 258 261 263 264 267 269 270 270 273 277 278 276 275 277 275 274 272 272 272 275 277 279 279 280 279 273 268 266 264 261 261 261 259
271 271 268 267 266 264 261 260 260 261 261 260 260 262 265 267 268 269 271 272 274 274 275 277 277 276 276 276 272 273 276 278 280 278 276 273 270 268 266 265 265 265 262
271 270 268 265 266 265 264 262 259 261 262 261 260 262 263 264 266 269 269 270 271 273 274 275 274 273 274 275 273 274 273 274 276 274 274 273 271 270 269 268 268 267 263
271 270 268 264 263 264 265 265 262 261 261 262 263 264 264 264 266 267 268 268 269 271 273 276 275 273 274 272 272 275 274 275 276 275 272 271 271 271 268 269 270 265 262
272 272 270 266 262 263 264 264 261 260 260 261 264 264 263 263 265 267 268 267 269 270 272 274 274 274 275 275 276 277 276 276 278 276 273 272 271 271 270 269 267 264 260
271 271 271 269 266 262 262 261 260 258 259 261 263 265 265 264 264 266 267 267 268 270 272 274 275 276 275 274 275 276 277 276 276 275 274 272 271 270 269 268 265 262 259
270 269 269 268 265 262 259 259 261 259 261 264 264 265 266 265 265 265 266 267 269 271 271 274 275 275 275 275 276 277 279 279 276 275 273 271 271 270 269 268 263 261 259
266 267 269 266 263 262 261 262 262 262 262 264 263 264 265 266 267 266 267 267 267 270 272 273 273 274 275 275 276 278 281 282 279 275 272 270 270 268 268 266 263 261 260
268 267 267 266 265 263 261 263 263 263 263 264 263 263 265 267 266 266 267 266 267 270 273 273 274 274 274 274 275 277 281 283 279 276 272 270 268 268 267 265 262 260 259
268 267 265 264 263 265 266 266 263 262 261 262 265 264 266 268 265 265 268 267 266 268 271 272 272 272 272 274 275 277 280 280 279 277 273 270 269 268 266 264 262 261 260
268 266 264 263 264 266 263 262 262 260 261 262 265 265 267 269 269 267 268 268 268 269 271 270 273 273 275 275 275 275 278 279 278 275 272 270 268 267 266 265 264 263 262
271 269 268 266 263 264 263 263 262 262 262 264 264 265 267 270 271 270 269 269 269 269 270 271 271 272 273 275 277 276 275 277 275 272 271 270 268 267 268 266 264 263 263
270 270 267 264 263 263 263 265 264 263 263 264 264 265 266 267 270 271 270 270 270 269 269 270 269 270 271 274 275 276 274 274 275 274 272 270 268 268 268 266 264 264 265
271 270 266 266 264 263 263 266 265 262 262 262 263 264 265 267 269 270 270 271 271 269 268 269 269 270 270 271 271 273 274 274 276 276 273 272 271 269 268 266 265 265 266
273 272 270 267 266 265 266 268 266 265 263 261 263 263 265 267 269 270 269 270 270 269 269 270 270 270 271 271 273 274 276 276 276 273 273 272 271 269 268 268 267 266 266
274 272 271 269 269 268 267 267 267 267 265 265 266 265 266 267 268 268 269 269 269 269 269 270 269 269 270 271 273 274 275 275 275 273 272 270 270 269 268 268 268 267 267
276 275 272 273 270 269 269 269 268 267 268 267 267 267 267 268 267 266 267 268 268 268 268 268 268 268 268 268 269 270 272 274 274 273 272 270 270 270 270 270 268 268 269
278 279 277 273 271 272 271 270 271 270 269 269 268 268 267 267 267 266 267 268 268 267 267 267 267 267 267 267 268 269 270 271 271 272 271 270 269 269 269 269 268 268 268
278 278 278 276 273 274 274 272 272 273 272 272 271 269 268 267 266 267 268 269 269 268 266 266 267 267 266 267 267 267 268 269 270 271 271 270 269 268 267 267 268 268 268
279 278 277 277 276 276 275 274 274 274 274 274 273 270 269 269 267 268 269 270 271 270 268 266 265 265 266 266 267 267 267 268 269 270 270 270 269 268 267 268 269 269 269
Height
5839 5839 5839 5839 5839 5840 5840 5841 5841 5841 5842 5842 5842 5842 5843 5843 5843 5843 5843 5843 5843 5843 5843 5843 5843 5843 5843 5843 5843 5843 5843 5843 5843 5843 5843 5843 5843 5844 5844 5844 5844 5843 5842
5837 5837 5837 5837 5837 5837 5838 5838 5838 5839 5839 5840 5840 5840 5840 5841 5841 5841 5841 5841 5841 5841 5841 5841 5841 5841 5841 5841 5841 5841 5840 5840 5840 5840 5840 5840 5840 5840 5841 5842 5841 5841 5841
5834 5834 5834 5834 5834 5835 5835 5835 5836 5836 5837 5837 5838 5838 5838 5838 5839 5839 5838 5839 5839 5839 5839 5838 5838 5839 5839 5838 5838 5838 5838 5838 5838 5838 5838 5838 5838 5838 5838 5839 5839 5839 5840
5831 5831 5831 5831 5831 5832 5832 5833 5833 5834 5834 5835 5835 5836 5836 5836 5836 5836 5836 5836 5837 5837 5837 5836 5836 5836 5836 5836 5836 5835 5835 5835 5835 5835 5835 5835 5835 5836 5836 5836 5836 5836 5837
5828 5828 5828 5828 5828 5828 5829 5830 5830 5831 5832 5832 5833 5833 5833 5834 5833 5834 5834 5834 5834 5834 5834 5834 5834 5834 5833 5833 5833 5833 5833 5833 5833 5833 5833 5832 5832 5833 5833 5833 5833 5834 5834
5825 5825 5825 5825 5825 5825 5826 5827 5827 5828 5828 5829 5830 5830 5831 5831 5831 5831 5831 5831 5831 5831 5831 5831 5831 5831 5831 5830 5830 5830 5830 5830 5830 5830 5830 5830 5830 5830 5830 5830 5830 5831 5831
5821 5821 5821 5821 5822 5822 5823 5824 5824 5825 5825 5826 5827 5827 5828 5828 5828 5828 5828 5828 5829 5829 5828 5828 5828 5828 5828 5828 5828 5828 5828 5827 5827 5827 5827 5827 5826 5826 5827 5827 5827 5827 5828
5818 5818 5818 5818 5819 5819 5820 5820 5821 5821 5822 5822 5823 5824 5825 5826 5825 5825 5825 5825 5826 5826 5825 5825 5825 5825 5825 5825 5825 5825 5825 5824 5824 5824 5824 5823 5823 5823 5823 5823 5824 5824 5824
5814 5814 5814 5815 5815 5816 5816 5817 5818 5818 5819 5819 5820 5821 5821 5822 5822 5822 5822 5822 5822 5822 5822 5822 5822 5822 5822 5822 5822 5822 5821 5821 5821 5821 5820 5820 5820 5820 5820 5820 5820 5820 5820
5810 5810 5810 5811 5811 5812 5813 5813 5814 5815 5815 5816 5816 5817 5818 5818 5818 5819 5819 5819 5819 5819 5819 5819 5819 5819 5819 5819 5819 5819 5818 5818 5817 5817 5817 5816 5816 5816 5816 5816 5816 5816 5817
5806 5806 5806 5806 5807 5808 5809 5809 5810 5811 5812 5812 5813 5813 5814 5814 5814 5815 5815 5815 5815 5816 5816 5816 5815 5815 5815 5815 5815 5815 5815 5814 5814 5813 5813 5813 5812 5812 5812 5812 5812 5812 5813
5802 5802 5802 5802 5803 5804 5805 5805 5806 5807 5808 5809 5809 5809 5810 5810 5810 5811 5811 5811 5811 5812 5812 5812 5811 5811 5811 5811 5811 5811 5811 5810 5810 5809 5809 5808 5808 5808 5808 5808 5808 5809 5809
5799 5798 5798 5799 5799 5800 5801 5802 5803 5803 5804 5805 5805 5806 5806 5806 5806 5807 5807 5807 5808 5808 5808 5808 5807 5807 5807 5807 5807 5807 5807 5806 5805 5805 5804 5804 5804 5804 5804 5804 5804 5805 5805
5795 5794 5795 5795 5795 5796 5797 5798 5799 5800 5800 5801 5801 5802 5802 5802 5802 5802 5803 5803 5804 5804 5804 5804 5803 5803 5803 5803 5803 5802 5802 5801 5800 5800 5799 5799 5799 5799 5799 5800 5800 5801 5801
5791 5791 5791 5791 5792 5792 5793 5794 5795 5795 5796 5796 5797 5797 5798 5798 5798 5798 5798 5799 5800 5799 5800 5799 5799 5799 5798 5798 5798 5797 5797 5796 5795 5794 5794 5794 5794 5795 5795 5795 5796 5796 5797
5786 5787 5787 5787 5787 5788 5788 5789 5790 5791 5791 5792 5792 5793 5793 5793 5793 5793 5794 5794 5794 5795 5795 5795 5795 5794 5794 5793 5793 5792 5792 5790 5789 5788 5788 5789 5789 5790 5790 5790 5791 5792 5792
5782 5782 5782 5782 5783 5784 5784 5785 5785 5786 5787 5787 5788 5788 5788 5789 5789 5789 5789 5789 5789 5790 5790 5790 5790 5789 5789 5789 5788 5787 5787 5786 5784 5784 5784 5784 5785 5785 5785 5786 5786 5787 5788
5777 5777 5777 5777 5778 5778 5779 5780 5780 5781 5781 5782 5782 5783 5783 5784 5784 5784 5784 5784 5784 5784 5785 5784 5784 5784 5784 5783 5783 5782 5782 5781 5780 5779 5779 5779 5780 5780 5781 5781 5782 5782 5783
5772 5772 5772 5772 5772 5773 5773 5774 5774 5775 5775 5776 5777 5777 5778 5778 5778 5778 5778 5778 5778 5778 5779 5779 5779 5778 5778 5778 5778 5777 5777 5776 5775 5774 5774 5774 5775 5775 5776 5776 5777 5777 5778
5766 5766 5766 5766 5766 5766 5767 5767 5768 5769 5769 5770 5770 5771 5771 5772 5772 5772 5772 5772 5772 5772 5772 5772 5772 5772 5772 5772 5772 5771 5771 5770 5770 5769 5769 5769 5770 5770 5770 5771 5771 5772 5772
5761 5760 5760 5760 5760 5760 5761 5761 5761 5762 5762 5762 5763 5764 5764 5765 5765 5765 5765 5766 5766 5766 5766 5766 5766 5766 5766 5765 5765 5765 5765 5764 5764 5764 5764 5764 5764 5764 5764 5765 5765 5765 5765
5754 5754 5754 5753 5754 5754 5754 5754 5754 5755 5755 5755 5756 5756 5756 5757 5757 5758 5758 5758 5758 5759 5759 5759 5759 5759 5759 5759 5759 5759 5758 5758 5758 5759 5758 5758 5758 5758 5758 5758 5758 5758 5759
5748 5747 5747 5746 5746 5747 5747 5747 5747 5747 5747 5748 5748 5748 5748 5749 5749 5749 5750 5750 5750 5750 5751 5751 5751 5751 5752 5752 5752 5751 5751 5751 5752 5751 5751 5751 5751 5751 5751 5751 5751 5751 5751
5741 5741 5740 5739 5739 5739 5739 5739 5739 5739 5740 5740 5740 5740 5740 5740 5741 5741 5741 5741 5741 5742 5742 5742 5743 5743 5743 5743 5744 5744 5744 5744 5744 5744 5743 5744 5744 5744 5744 5744 5744 5744 5744
5734 5734 5733 5732 5732 5732 5732 5732 5732 5732 5732 5731 5731 5732 5732 5732 5732 5732 5733 5733 5733 5733 5733 5733 5733 5734 5734 5734 5735 5735 5736 5736 5736 5736 5736 5736 5736 5736 5736 5737 5736 5737 5737
5727 5726 5726 5726 5725 5725 5724 5724 5723 5724 5723 5723 5723 5722 5723 5723 5723 5723 5723 5723 5723 5723 5723 5723 5724 5724 5725 5725 5726 5726 5727 5727 5727 5728 5728 5728 5728 5728 5729 5729 5728 5728 5729